This is the latest recevied weather packets stored in our database for station/object OK2JV-13. If no packets are shown the sender has not sent any weather packets the latest 10 day(s).
| Time | Temp. | Humidity | Pressure | Rain* | Wind** | Luminosity | Snow |
|---|---|---|---|---|---|---|---|
| 1787970952 | 13.33° C | 90% | 1013.2 hPa | - | - | - | - |
| 1787970348 | 13.33° C | 90% | 1013.3 hPa | - | - | - | - |
| 1787969744 | 13.89° C | 92% | 1013 hPa | - | - | - | - |
| 1787969139 | 15° C | 96% | 1013 hPa | - | - | - | - |
| 1787968536 | 15° C | 96% | 1012.3 hPa | - | - | - | - |
| 1787967932 | 15° C | 94% | 1012.1 hPa | - | - | - | - |
| 1787967330 | 15° C | 93% | 1011.9 hPa | - | - | - | - |
| 1787966724 | 15° C | 93% | 1012 hPa | - | - | - | - |
| 1787966120 | 15° C | 93% | 1012 hPa | - | - | - | - |
| 1787965518 | 15° C | 93% | 1011.9 hPa | - | - | - | - |
| 1787964912 | 14.44° C | 92% | 1011.8 hPa | - | - | - | - |
| 1787964307 | 14.44° C | 91% | 1011.9 hPa | - | - | - | - |
| 1787963705 | 14.44° C | 90% | 1011.8 hPa | - | - | - | - |
| 1787963099 | 14.44° C | 89% | 1012 hPa | - | - | - | - |
| 1787962495 | 15° C | 87% | 1012.1 hPa | - | - | - | - |
| 1787961892 | 15° C | 85% | 1011.9 hPa | - | - | - | - |
| 1787961288 | 15° C | 84% | 1011.6 hPa | - | - | - | - |
| 1787960684 | 15° C | 83% | 1011.5 hPa | - | - | - | - |
| 1787960080 | 15.56° C | 81% | 1011.6 hPa | - | - | - | - |
| 1787959476 | 16.11° C | 80% | 1011.8 hPa | - | - | - | - |
| 1787958873 | 17.22° C | 76% | 1011.5 hPa | - | - | - | - |
| 1787958268 | 17.78° C | 67% | 1011.4 hPa | - | - | - | - |
| 1787957664 | 17.78° C | 66% | 1011.3 hPa | - | - | - | - |
| 1787957060 | 17.78° C | 67% | 1011.1 hPa | - | - | - | - |
| 1787956456 | 17.78° C | 67% | 1011 hPa | - | - | - | - |
* Rain since midnight (hover to see other rain measurements)
** Current wind speed in m/s (hover to see current wind gust speed)